Weather History for Chadron, NE

Change the Weather History Date:

Saturday, June 15, 2013

  Actual Average Record
Temperature  
Mean Temperature 64 °F 66 °F  
Max Temperature 77 °F 81 °F 102 °F (1952)
Min Temperature 51 °F 50 °F 37 °F (1989)
Degree Days  
Heating Degree Days 1 3  
Month to date heating degree days 58 58  
Since 1 June heating degree days 58 58  
Since 1 July heating degree days 6873 7123  
Cooling Degree Days 0 3  
Month to date cooling degree days 25 34  
Year to date cooling degree days 53 54  
Since 1 June cooling degree days 25 34  
Growing Degree Days 14 (Base 50)    
Moisture  
Dew Point 52 °F    
Average Humidity 68    
Maximum Humidity 96    
Minimum Humidity 39    
Precipitation  
Precipitation T in 0.11 in 2.11 in (1967)
Month to date precipitation 1.06 1.80  
Year to date precipitation 7.28 8.74  
Sea Level Pressure  
Sea Level Pressure 30.00 in    
Wind  
Wind Speed 5 mph (ENE)    
Max Wind Speed 18 mph    
Max Gust Speed 24 mph    
Visibility 10 miles    
Events Rain , Thunderstorm    
T = Trace of Precipitation, MM = Missing Value Source: NWS Daily Summary

Daily Weather History Graph

Daily Weather History Graph

Search for Another Location

Airport:

Trip Planner

Search our weather history database for the weather conditions in past years. The results will help you decide how hot, cold, wet, or windy it might be!

Date:

Astronomy

Jun. 15, 2013 Rise Set
Actual Time 5:13 AM MDT 8:32 PM MDT
Civil Twilight 4:38 AM MDT 9:08 PM MDT
Nautical Twilight 3:52 AM MDT 9:53 PM MDT
Astronomical Twilight 2:56 AM MDT 10:50 PM MDT
Moon 11:59 AM MDT (6/15) 12:01 AM MDT (6/15)
Length of Visible Light 16h 29m
Length of Day
15h 19m
Waxing Crescent, 40% of the Moon is Illuminated
Jun 15
Waxing Crescent
Jun 16
First Quarter
Jun 23
Full
Jun 29
Last Quarter
Jul 8
New

Hourly Weather History & Observations

Time (MDT) Temp. Dew Point Humidity Pressure Visibility Wind Dir Wind Speed Gust Speed Precip Events Conditions
12:01 AM 60.8 °F 53.6 °F 77% 30.02 in 7.0 mi East 15.0 mph 25.3 mph 0.00 in Rain , Thunderstorm Light Thunderstorms and Rain
12:11 AM 60.8 °F 53.6 °F 77% 30.05 in 10.0 mi ENE 9.2 mph - 0.00 in Thunderstorm Overcast
12:32 AM 59.0 °F 53.6 °F 82% 30.04 in 10.0 mi NE 15.0 mph - 0.00 in   Overcast
12:53 AM 59.0 °F 54.0 °F 83% 29.96 in 10.0 mi ENE 16.1 mph 26.5 mph 0.00 in   Scattered Clouds
1:53 AM 59.0 °F 54.0 °F 83% 29.97 in 10.0 mi NE 8.1 mph 17.3 mph N/A   Partly Cloudy
2:53 AM 57.0 °F 54.0 °F 89% 29.97 in 10.0 mi Calm Calm - N/A   Clear
3:53 AM 54.0 °F 52.0 °F 93% 29.97 in 10.0 mi NNW 3.5 mph - N/A   Clear
4:53 AM 52.0 °F 50.0 °F 93% 29.99 in 10.0 mi NW 3.5 mph - N/A   Clear
5:53 AM 51.1 °F 48.9 °F 92% 30.02 in 10.0 mi West 4.6 mph - N/A   Clear
6:53 AM 55.9 °F 50.0 °F 80% 30.04 in 10.0 mi West 3.5 mph - N/A   Mostly Cloudy
7:53 AM 60.1 °F 51.1 °F 72% 30.05 in 10.0 mi Calm Calm - N/A   Clear
8:53 AM 63.0 °F 46.9 °F 56% 30.06 in 10.0 mi Calm Calm - N/A   Clear
9:53 AM 66.0 °F 46.9 °F 50% 30.04 in 10.0 mi ENE 5.8 mph - N/A   Clear
10:53 AM 69.1 °F 50.0 °F 51% 30.03 in 10.0 mi ENE 3.5 mph - N/A   Clear
11:53 AM 72.0 °F 50.0 °F 46% 30.03 in 10.0 mi East 6.9 mph - N/A   Clear
12:53 PM 72.0 °F 48.9 °F 44% 30.02 in 10.0 mi ENE 6.9 mph - N/A   Clear
1:53 PM 73.9 °F 50.0 °F 43% 30.01 in 10.0 mi ESE 9.2 mph - N/A   Clear
2:53 PM 75.0 °F 51.1 °F 43% 29.99 in 10.0 mi ENE 8.1 mph - N/A   Clear
3:53 PM 75.9 °F 51.1 °F 42% 29.98 in 10.0 mi ESE 6.9 mph - N/A   Clear
4:53 PM 77.0 °F 50.0 °F 39% 29.96 in 10.0 mi SE 8.1 mph - N/A   Clear
5:53 PM 75.9 °F 50.0 °F 40% 29.96 in 10.0 mi ESE 8.1 mph - N/A   Clear
6:53 PM 75.0 °F 52.0 °F 44% 29.95 in 10.0 mi ENE 5.8 mph - N/A   Clear
7:53 PM 70.0 °F 55.9 °F 61% 29.96 in 10.0 mi East 6.9 mph - N/A   Clear
8:53 PM 64.9 °F 55.9 °F 73% 29.96 in 10.0 mi ESE 5.8 mph - N/A   Clear
9:53 PM 61.0 °F 54.0 °F 78% 29.98 in 10.0 mi Calm Calm - N/A   Clear
10:53 PM 57.9 °F 53.1 °F 84% 29.98 in 10.0 mi SSW 3.5 mph - N/A   Clear
11:53 PM 57.9 °F 52.0 °F 81% 29.98 in 10.0 mi Calm Calm - N/A   Clear